[[{"header":{"parameterUnit":"m.s-1","parameterCategory":1,"la1":30.2991,"la2":30.254,"lo1":-89.0895,"lo2":-89.0444,"dy":0.0017,"dx":0.0017,"nx":28,"ny":28,"refTime":"2025-07-28T09:00:00:Z","depth":0,"parameterNumber":2,"parameterNumberName":"U-component_of_WINDS"},"data":[0,0,0,0,0,0,0,0,0,0,0,0,0,0,0,0,0,0,0,0,0,0,0,0,0,0,0,0,0,0,0,0,0,0,0,0,0,0,0,0,0,0,0,0,0,0,0,0,0,0,0,0,0,0,0,0,0,0,1.8578,1.8579,0,1.8649,1.865,1.865,1.8622,1.8621,1.8619,1.8617,1.8695,1.8698,1.8702,0,0,0,0,0,0,0,0,0,0,0,0,0,1.8424,1.8427,1.8578,1.8579,1.8579,1.8649,1.865,1.8651,1.8622,1.862,1.8618,1.8616,1.8694,1.8698,1.8702,0,0,0,0,0,0,0,0,0,0,0,0,0,1.8493,1.8428,1.8578,1.8574,1.8574,1.8649,1.865,1.8651,1.8623,1.862,1.8618,1.8616,1.8692,1.8698,1.8703,1.8787,0,0,1.872,1.8722,0,0,0,0,0,0,0,0,1.8489,1.8499,1.8573,1.8574,1.8575,1.8624,1.8624,1.8697,1.8624,1.8605,1.8617,1.8614,1.8674,1.8681,1.87,1.8791,1.8794,1.872,1.8723,1.8726,1.8727,0,0,0,0,0,0,0,1.8484,1.8495,1.8606,1.8575,1.8575,1.8571,1.8578,1.8638,1.8653,1.8606,1.8604,1.8613,1.8674,1.8694,1.8701,1.8795,1.872,1.8725,1.8728,1.873,1.8964,1.8967,0,0,0,0,0,0,1.8479,1.8492,1.8604,1.8608,1.8525,1.8575,1.8583,1.8611,1.8652,1.8655,1.8615,1.8611,1.8686,1.8695,1.8704,1.8808,1.8726,1.8731,1.8734,1.8961,1.8964,1.8968,0,0,0,0,0,0,1.8475,1.8489,1.8601,1.8549,1.8563,1.8581,1.8612,1.8613,1.8634,1.8658,1.8661,1.8633,1.8685,1.8696,1.8767,1.881,1.8733,1.8738,1.8957,1.8962,1.8966,1.9015,0,0,0,0,0,0,1.8471,1.8488,1.8518,1.855,1.8566,1.8661,1.8614,1.8617,1.8643,1.8639,1.8676,1.868,1.8684,1.8759,1.8773,1.8816,1.8743,1.8954,1.8959,1.8965,1.901,1.902,1.903,0,0,0,0,0,1.8466,1.8529,1.852,1.8533,1.8604,1.8663,1.8673,1.8674,1.8646,1.8679,1.8695,1.8679,1.8803,1.8767,1.8782,1.8827,1.8951,1.8958,1.8964,1.9005,1.9018,1.9029,0,0,0,0,0,0,1.8502,1.8533,1.8523,1.8598,1.8628,1.8658,1.8699,1.8688,1.8727,1.8722,1.8724,1.8733,1.8807,1.8824,1.8783,1.8913,1.8873,1.8883,1.8899,1.8912,1.8922,1.8917,1.8747,0,0,0,0,0,1.8519,1.8563,1.8588,1.8652,1.8668,1.8681,1.8707,1.8706,1.8737,1.875,1.8772,1.8805,1.8852,1.8883,1.8927,1.9012,1.9022,1.9051,1.9061,1.9069,1.9078,1.9128,1.9143,1.8989,1.8989,1.8989,0,0,1.8554,1.8576,1.8604,1.866,1.8683,1.8732,1.8692,1.8743,1.878,1.8759,1.8827,1.8845,1.8882,1.8962,1.8998,1.8978,1.9123,1.9078,1.9084,1.9089,1.9137,1.9151,1.9164,1.8994,1.8993,1.8992,0,0,1.8643,1.8663,1.872,1.8745,1.878,1.8789,1.8803,1.8835,1.8846,1.8915,1.8901,1.8946,1.9025,1.9054,1.9079,1.9182,1.917,1.9197,1.925,1.9299,1.9311,1.9322,1.9362,1.9376,1.9205,1.9206,1.9206,0,1.8683,1.8752,1.8751,1.8805,1.8832,1.8814,1.8874,1.8899,1.8948,1.8968,1.8945,1.9047,1.9071,1.9158,1.9184,1.9204,1.9222,1.9193,1.9309,1.932,1.933,1.9368,1.9383,1.9209,1.9208,1.9208,1.9208,0,1.8801,1.885,1.8892,1.894,1.8971,1.9028,1.9038,1.907,1.9067,1.908,1.9152,1.9181,1.9232,1.9252,1.925,1.9341,1.9329,1.9307,1.9267,1.9348,1.9384,1.9398,1.9213,1.9212,1.9211,1.921,0,0,1.8914,1.8961,1.8977,1.9,1.904,1.9079,1.9136,1.9185,1.9215,1.925,1.9301,1.937,1.9352,1.938,1.9381,1.9424,1.9508,1.9398,1.9399,1.942,1.9615,1.9632,1.9648,1.95,1.9503,1.9505,1.9613,0,1.9008,1.9106,1.9109,1.9201,1.9248,1.9234,1.9285,1.9316,1.933,1.9374,1.939,1.944,1.9411,1.9428,1.947,1.9489,1.9548,1.9481,1.955,1.9553,1.9543,1.9667,1.9684,1.9784,1.9626,1.9629,1.963,0,1.913,1.9169,1.9265,1.9301,1.9321,1.9366,1.9414,1.9455,1.9492,1.95,1.9533,1.9528,1.9591,1.9548,1.9636,1.9591,1.9619,1.9634,1.9638,1.9645,1.9597,1.968,1.9815,1.9831,1.9652,1.965,1.9649,0,1.9206,1.9283,1.9351,1.9371,1.9413,1.9446,1.9466,1.95,1.9531,1.9573,1.9594,1.9643,1.9671,1.971,1.9721,1.9688,1.981,1.9767,1.9821,1.9821,1.9848,1.9846,1.9992,1.9863,1.9863,1.9862,1.9862,0,1.9311,1.9372,1.9386,1.9429,1.9497,1.9501,1.9569,1.9587,1.9618,1.9666,1.9657,1.9703,1.9713,1.9761,1.977,1.9844,1.9856,1.9866,1.9868,1.9867,1.9867,1.9887,1.9882,1.9866,1.9866,1.9865,1.9864,0,1.9408,1.9419,1.9494,1.9529,1.9539,1.9589,1.962,1.9662,1.9676,1.9737,1.9751,1.9773,1.9831,1.9845,1.9913,1.9919,2.0007,2.0001,1.9994,1.9994,2.0048,2.0044,2.0213,2.0237,2.0091,2.0092,2.0093,0,1.9475,1.9521,1.9562,1.9593,1.9614,1.9664,1.9695,1.9702,1.9736,1.9783,1.9821,1.9877,1.9922,2.0015,2.0038,2.0091,2.0088,2.0144,2.0096,2.0096,2.0093,2.0091,2.0097,2.0154,2.0155,2.0157,2.0158,0,1.9595,1.9599,1.9644,1.9692,1.973,1.9768,1.9805,1.9832,1.9844,1.9883,1.9941,1.9976,2.0047,2.0104,2.0158,2.0181,2.0173,2.0173,2.0188,2.019,2.0185,2.0191,2.0021,2.0169,2.0168,2.0167,2.0166,2.0166,1.968,1.9722,1.9758,1.9809,1.9838,1.9874,1.9916,1.9935,1.9983,2.004,2.0042,2.0106,2.0146,2.0217,2.0244,2.0296,2.028,2.0301,2.0308,2.0313,2.0319,2.0175,2.0306,2.0306,2.0305,2.0305,2.0305,0,1.9801,1.9824,1.9872,1.9924,1.9966,1.9953,1.9994,2.003,2.0086,2.0123,2.0168,2.0237,2.0293,2.0322,2.0379,2.0415,2.0414,2.043,2.0429,2.0435,2.033,2.0312,2.0431,2.0431,2.0431,2.0431,2.0431,2.0431,1.9869,1.994,1.995,2.0036,2.0059,2.0121,2.0146,2.018,2.021,2.0287,2.0333,2.0351,2.0386,2.0446,2.0498,2.0505,2.0528,2.0547,2.0553,2.0455,2.0442,2.043,2.0413,2.0552,2.0552,2.0654,2.0655,2.0656]},{"header":{"parameterUnit":"m.s-1","parameterCategory":1,"la1":30.2991,"la2":30.254,"lo1":-89.0895,"lo2":-89.0444,"dy":0.0017,"dx":0.0017,"nx":28,"ny":28,"refTime":"2025-07-28T09:00:00:Z","depth":0,"parameterNumber":3,"parameterNumberName":"V-component_of_WINDS"},"data":[0,0,0,0,0,0,0,0,0,0,0,0,0,0,0,0,0,0,0,0,0,0,0,0,0,0,0,0,0,0,0,0,0,0,0,0,0,0,0,0,0,0,0,0,0,0,0,0,0,0,0,0,0,0,0,0,0,0,-0.523,-0.5229,0,-0.5059,-0.5057,-0.5055,-0.5089,-0.5092,-0.5095,-0.5098,-0.4916,-0.4908,-0.4901,0,0,0,0,0,0,0,0,0,0,0,0,0,-0.5581,-0.5575,-0.5231,-0.5228,-0.5226,-0.5059,-0.5057,-0.5054,-0.5088,-0.5092,-0.5096,-0.51,-0.4918,-0.4909,-0.49,0,0,0,0,0,0,0,0,0,0,0,0,0,-0.5421,-0.5573,-0.5231,-0.5223,-0.5221,-0.506,-0.5057,-0.5054,-0.5088,-0.5092,-0.5097,-0.5101,-0.4921,-0.491,-0.4899,-0.4732,0,0,-0.4863,-0.4858,0,0,0,0,0,0,0,0,-0.543,-0.5408,-0.5226,-0.5223,-0.5221,-0.51,-0.5114,-0.4946,-0.5086,-0.5138,-0.5098,-0.5104,-0.4973,-0.4957,-0.4915,-0.4724,-0.4716,-0.4862,-0.4855,-0.485,-0.4846,0,0,0,0,0,0,0,-0.5441,-0.5416,-0.5162,-0.5224,-0.522,-0.5226,-0.5209,-0.5082,-0.5031,-0.5134,-0.5136,-0.5115,-0.4972,-0.4926,-0.4911,-0.4713,-0.4862,-0.4852,-0.4845,-0.484,-0.4376,-0.4371,0,0,0,0,0,0,-0.5456,-0.5425,-0.5168,-0.5157,-0.5339,-0.5216,-0.5197,-0.5134,-0.5032,-0.5022,-0.5112,-0.5118,-0.4943,-0.4924,-0.4904,-0.4701,-0.485,-0.4839,-0.4832,-0.4381,-0.4375,-0.4369,0,0,0,0,0,0,-0.5463,-0.5433,-0.5175,-0.5291,-0.5259,-0.5205,-0.5135,-0.5128,-0.5082,-0.5016,-0.5006,-0.5074,-0.4946,-0.4921,-0.4775,-0.4695,-0.4834,-0.4823,-0.4387,-0.4379,-0.4372,-0.4295,0,0,0,0,0,0,-0.5473,-0.5435,-0.5373,-0.529,-0.5253,-0.505,-0.513,-0.5121,-0.5062,-0.5069,-0.4978,-0.4967,-0.4948,-0.4792,-0.4763,-0.4682,-0.4814,-0.4394,-0.4384,-0.4374,-0.4304,-0.4285,-0.4269,0,0,0,0,0,-0.5486,-0.5357,-0.5369,-0.5338,-0.5174,-0.5045,-0.5024,-0.5006,-0.5056,-0.4991,-0.4949,-0.497,-0.471,-0.4777,-0.4745,-0.4659,-0.4399,-0.4387,-0.4375,-0.4312,-0.4289,-0.4269,0,0,0,0,0,0,-0.5429,-0.5346,-0.5359,-0.52,-0.513,-0.5051,-0.4969,-0.4982,-0.4895,-0.4904,-0.4884,-0.4863,-0.4715,-0.4673,-0.4749,-0.4492,-0.4561,-0.4542,-0.4524,-0.4502,-0.4484,-0.4496,-0.4804,0,0,0,0,0,-0.5399,-0.5303,-0.5235,-0.5101,-0.5065,-0.5024,-0.4967,-0.496,-0.4885,-0.4855,-0.4802,-0.4727,-0.4628,-0.4563,-0.4469,-0.43,-0.4279,-0.4224,-0.4207,-0.4193,-0.4175,-0.4081,-0.4055,-0.4329,-0.433,-0.433,0,0,-0.5334,-0.5276,-0.5217,-0.5088,-0.5033,-0.4932,-0.4998,-0.4889,-0.4813,-0.4837,-0.4696,-0.4655,-0.457,-0.4412,-0.4339,-0.4372,-0.4096,-0.4177,-0.4167,-0.4157,-0.4066,-0.404,-0.4017,-0.4321,-0.4323,-0.4324,0,0,-0.5163,-0.5112,-0.4994,-0.4937,-0.4854,-0.4827,-0.4799,-0.4718,-0.4692,-0.4551,-0.4567,-0.4476,-0.4307,-0.4245,-0.4192,-0.3999,-0.4014,-0.3969,-0.3876,-0.3784,-0.3762,-0.3743,-0.3671,-0.3646,-0.3953,-0.3952,-0.3952,0,-0.5092,-0.4943,-0.4931,-0.4819,-0.4761,-0.4782,-0.4661,-0.4606,-0.4495,-0.4453,-0.4493,-0.4281,-0.4225,-0.4051,-0.4005,-0.3962,-0.3926,-0.3978,-0.3767,-0.3747,-0.3729,-0.366,-0.3634,-0.3947,-0.3948,-0.3948,-0.3949,0,-0.4858,-0.4754,-0.4669,-0.4563,-0.4496,-0.438,-0.4348,-0.4281,-0.4281,-0.4249,-0.4104,-0.4039,-0.3931,-0.389,-0.3887,-0.3715,-0.3738,-0.3772,-0.3841,-0.3698,-0.3633,-0.3607,-0.394,-0.3942,-0.3943,-0.3945,0,0,-0.4644,-0.4535,-0.4503,-0.4455,-0.4365,-0.4283,-0.4168,-0.4065,-0.4006,-0.393,-0.3831,-0.3688,-0.3719,-0.3658,-0.3649,-0.3569,-0.3417,-0.3613,-0.361,-0.3576,-0.3221,-0.3194,-0.3164,-0.3429,-0.3424,-0.342,-0.3227,0,-0.4463,-0.4262,-0.4248,-0.4065,-0.3968,-0.3987,-0.3886,-0.3819,-0.3787,-0.3698,-0.3662,-0.356,-0.361,-0.3573,-0.3495,-0.3452,-0.3345,-0.3467,-0.3333,-0.3329,-0.3351,-0.313,-0.3101,-0.2922,-0.3202,-0.3198,-0.3195,0,-0.4224,-0.4142,-0.395,-0.3873,-0.3832,-0.3742,-0.3645,-0.3562,-0.3485,-0.3467,-0.34,-0.3402,-0.3282,-0.3358,-0.319,-0.3273,-0.3218,-0.3189,-0.3182,-0.3166,-0.3251,-0.3105,-0.2865,-0.2837,-0.3155,-0.3159,-0.3161,0,-0.4084,-0.3925,-0.379,-0.3748,-0.3656,-0.3592,-0.355,-0.3479,-0.3417,-0.3333,-0.3292,-0.3195,-0.314,-0.3063,-0.3038,-0.3096,-0.287,-0.2945,-0.285,-0.285,-0.2798,-0.2801,-0.2543,-0.2768,-0.2769,-0.2769,-0.277,0,-0.3881,-0.3762,-0.3725,-0.3641,-0.3508,-0.3493,-0.3361,-0.3323,-0.3259,-0.3167,-0.3178,-0.309,-0.3064,-0.2971,-0.2951,-0.2814,-0.279,-0.277,-0.2765,-0.2767,-0.2769,-0.2728,-0.2738,-0.2762,-0.2764,-0.2765,-0.2766,0,-0.37,-0.3672,-0.3524,-0.345,-0.3429,-0.3333,-0.3268,-0.3186,-0.3158,-0.304,-0.3011,-0.2964,-0.2856,-0.2824,-0.2693,-0.268,-0.2518,-0.2526,-0.2544,-0.2543,-0.2448,-0.2456,-0.2152,-0.211,-0.2366,-0.2364,-0.2362,0,-0.3571,-0.348,-0.3397,-0.3337,-0.3293,-0.3196,-0.3134,-0.3116,-0.305,-0.2956,-0.2885,-0.2779,-0.2692,-0.2518,-0.247,-0.237,-0.2374,-0.2274,-0.2358,-0.2363,-0.2368,-0.2373,-0.2363,-0.2257,-0.2254,-0.2252,-0.225,0,-0.3344,-0.3335,-0.3246,-0.3151,-0.3078,-0.3002,-0.2929,-0.2879,-0.285,-0.2776,-0.2666,-0.2599,-0.2467,-0.2359,-0.2258,-0.2213,-0.2225,-0.2225,-0.2197,-0.2196,-0.2208,-0.2197,-0.2497,-0.2231,-0.2233,-0.2234,-0.2235,-0.2236,-0.3183,-0.3103,-0.3031,-0.2932,-0.2876,-0.2808,-0.2727,-0.2688,-0.2597,-0.2489,-0.2484,-0.2364,-0.2289,-0.2155,-0.2105,-0.2009,-0.2038,-0.1999,-0.1988,-0.1977,-0.1968,-0.2227,-0.1991,-0.1992,-0.1992,-0.1993,-0.1993,0,-0.2954,-0.291,-0.2818,-0.2717,-0.2638,-0.2661,-0.2581,-0.2513,-0.2408,-0.2339,-0.2254,-0.2127,-0.2024,-0.1969,-0.1866,-0.18,-0.1803,-0.1773,-0.1776,-0.1765,-0.1949,-0.1983,-0.1772,-0.1772,-0.1773,-0.1773,-0.1773,-0.1773,-0.2825,-0.269,-0.2672,-0.2508,-0.2464,-0.2348,-0.2301,-0.2237,-0.2182,-0.204,-0.1955,-0.1922,-0.1857,-0.175,-0.1655,-0.1642,-0.1602,-0.1568,-0.1557,-0.173,-0.1752,-0.1773,-0.1804,-0.156,-0.156,-0.138,-0.1378,-0.1377]}]]